DJIBOUTI 1B (62402 NORAD) Tracking and Keplerian Element Data

This shows tracking and keplerian element data for the satellite.

Feedback or suggestion? Click here.




ElementValue
Catalog62402
NameDJIBOUTI 1B
Epoch Orbit681
Epoch Day34.28412099
Epoch Year2025
RAAN124.3406
Inclination44.9909
Eccentricity0.0004806
Argument of Perigee258.3248
Mean Anonmoly101.7093
Mean Motion15.21661845
Decay Rate0.0002647
L11 62402U 24247AB 25034.28412099 .00026470 00000+0 11577-2 0 9993
L22 62402 44.9909 124.3406 0004806 258.3248 101.7093 15.21661845 6816



Live tracking and technical data element details for DJIBOUTI 1B (NORAD 62402). DJIBOUTI 1B can be tracked NOW for your location showing map with azimuth and elevation plus other details from your city location.







IsCatalogInMostPopularTable: catalog: 62402, numindb: 8
Update: records affected: 1



GetName: 62402 DJIBOUTI 1B

Hit Count: updated at: Mon, 19 May 2025 01:54:00 GMT